Regional Weather Roundup
Issued by NWS

Home | Current Version | Previous Version | Text Only | Print | Product List | Glossary Off
Versions: 1 2 3 4 5 6 7 8 9 10 11 12 13 14 15 16 17 18 19 20 21 22 23 24 25 26 27 28 29 30 31 32 33 34 35 36 37 38 39 40 41 42 43 44 45 46 47 48 49 50

000
ASUS43 KLMK 220602
RWRKY
KENTUCKY REGIONAL WEATHER ROUNDUP
NATIONAL WEATHER SERVICE LOUISVILLE KY
200 AM EDT TUE JUL 22 2014

NOTE "FAIR" INDICATES FEW OR NO CLOUDS BELOW 12,000 FEET
WITH NO SIGNIFICANT WEATHER AND/OR OBSTRUCTIONS TO VISIBILITY.

KYZ001>023-026-027-061>063-070>075-220700-
WESTERN AND SOUTH CENTRAL KENTUCKY

CITY           SKY/WX    TMP DP  RH WIND       PRES   REMARKS
PADUCAH        CLEAR     68  64  87 W3        30.07R
HENDERSON      CLEAR     66  63  88 CALM      30.07R
OWENSBORO      CLEAR     71  66  84 CALM      30.07S
HOPKINSVILLE   CLEAR     73  67  82 CALM      30.06S
BOWLING GREEN  PTCLDY    75  67  76 CALM      30.07S
GLASGOW        PTCLDY    72  69  90 CALM      30.08S
$$

KYZ024-025-028>034-038-045-046-053-220700-
NORTH CENTRAL KENTUCKY

CITY           SKY/WX    TMP DP  RH WIND       PRES   REMARKS
LOUISVILLE/SDF PTCLDY    74  68  81 CALM      30.08F
LOUISVILLE/LOU CLEAR     73  67  81 CALM      30.08F
FORT KNOX      CLEAR     72  67  85 NE3       30.08S
$$

KYZ035>037-039>044-047>052-055>060-089>105-220700-
NORTHEAST KENTUCKY

CITY           SKY/WX    TMP DP  RH WIND       PRES   REMARKS
LEXINGTON      PTCLDY    73  68  84 CALM      30.11S
COVINGTON      CLEAR     75  66  73 CALM      30.11S
FRANKFORT      CLEAR     69  66  90 CALM      30.09S
$$

KYZ054-064>069-076>088-106>120-220700-
SOUTHEAST KENTUCKY

CITY           SKY/WX    TMP DP  RH WIND       PRES   REMARKS
JACKSON        PTCLDY    75  67  76 CALM      30.12S
LONDON         PTCLDY    73  69  87 CALM      30.12R
SOMERSET       PTCLDY    72  72 100 CALM      30.10F
MIDDLESBORO    PTCLDY    71  69  93 CALM      30.13S
MONTICELLO     PTCLDY    69  69 100 CALM      30.11S FOG
$$




USA.gov is the U.S. government's official web portal to all federal, state and local government web resources and services.